CZ-6A DEB, 54349

Orbit data source: Space-Track

CZ-6A DEB, 54349 is space debris in SSO originally from a launch on Fri, 11 Nov 2022 UTC launched from the Taiyaun Space Center, China (TSC). Debris objects in space refer to the collection of defunct objects orbiting the Earth. Examples of debris include non-operational satellites, rocket bodies, and fragments generated from explosions, collisions, or faulty payload assembly.

Loading next visibility...
Identifier
54349, 2022-151CU
Orbit
SSO
Country
Flag of CNCN / PRC
Related business
Manufacturer
SAST
Mission
Spacecraft
Bus & Motor
Unknown
Mass
Unknown
Launch date (UTC)
2022-11-11 (4 years ago)
Launch vehicle
Unknown
Launch site
Taiyaun Space Center, China (TSC)
Object type
Payload
Rocket body
Debris
Shape & HBR
Unknown shape, 0.1 m
Radar Cross Section
Medium (>0.1 m² and <1 m²)

Expand to show TLE details & history
Last TLE update: 2 days ago

TLE from 2 days ago
0 CZ-6A DEB
1 54349U 22151CU  26170.96925309  .00000465  00000-0  18989-3 0  9998
2 54349  98.6729 189.5315 0109748  92.2432 269.1320 14.28592914187117
Epoch: 2026-06-19T23:15Z
TLE epoch observation values (Epoch: 2026-06-19T23:15:43.466Z)
Latitude
-0.0001°
Longitude
-67.5902°
Altitude
801.423 km
Speed
7.452 km/s
True Right ascension
12h 38m 07s
True Declination
0° 00' 00"
Sunlit
Object was in daylight at epoch
Visualization orbit readout
Latitude
Unknown
Longitude
Unknown
Altitude
Unknown
Speed
Unknown
Apparent Right ascension
Unknown
Apparent Declination
Unknown
Sunlit
N/A
Visualization observer readout
Local Sidereal Time
21:31:26
Azimuth
Unknown
Elevation
Unknown
Doppler factor
Unknown
Orbital elements
Apogee altitude
872.291 km
Perigee altitude
714.875 km
Semi-major axis
7,171.72 km
Eccentricity
0.01097
Inclination
98.6729°
RAAN
189.5315°
Arg. of periapsis
92.2432°
True anomaly
267.87489°
Mean anomaly
269.132°
Eccentric anomaly
268.5034°
Mean motion
3.57362 °/min
Orbital period
100.74 mins
BSTAR
0.00018989
Loading maneuver chart data...
Computing Atmospheric mass density...
Loading historical data...
Loading historical data...
Loading historical data...
Loading historical data...
Loading historical data...
Loading historical data...
Loading historical data...

Documentation

Showing up to 5 results
|